Location: Chmeln�
(49.6483°N, 14.9871°E)
Time: 06:25:15
(UTC+00:00)

COSMOS 2406 - Pass Details

Date: 18 September 2020
Orbit: 844 x 863 km, 71.0° (Epoch: 22 October)

Event Time Altitude Azimuth Distance (km) Brightness Sun altitude
Rises 20:47:24 0° 327° (NNW) 3,415 7.5 -32.1°
Reaches altitude 10° 20:49:56 10° 322° (NW) 2,476 6.5 -32.4°
Enters shadow 20:54:22 43° 279° (W) 1,181 4.1 -32.8°
